Showing default

COSMOS 1566, 15005

Orbit data source: Space-Track

COSMOS 1566, 15005 is a payload satellite owned by GUKOS (CIS) in LEO that was launched on Mon, 28 May 1984 UTC via a KOSMOS 11K65M launch vehicle from the Plesetsk Missile And Space Complex (PKMTR). Payloads include a variety of satellites, spacecraft, and rockets equipped with specific instruments for various scientific and technological missions. These include communications satellites like Starlink; space stations such as the ISS; scientific satellites like the Hubble; Earth observation satellites from companies like Planet Labs, Umbra, and HawkEye 360; GPS; miniature CubeSats for education and research; and military/defense satellites.

Loading next visibility...
COSMOS 1566 details
Identifier
15005, 1984-052H
Orbit
LEO
Last TLE update1 day ago
Origin
Flag of CISGUKOS (CIS)
ManufacturerNPO PM
MissionDefense Communications
Bus & MotorSTRELA-1 11F625, Unknown motor
Mass60 kg wet, 60 kg dry
Launch date (UTC)
1984-05-28 (41 years ago)
Launch vehicle
KOSMOS 11K65M
Launch site
Plesetsk Missile And Space Complex (PKMTR)
Object type
Payload
Rocket body
Debris
Shape & HBRSphere, 0.8 m
Radar Cross Section0.588 m², Medium (>0.1 m² and < 1m²)

Expand to show TLE details & history

TLE from 1 day ago
0 COSMOS 1566
1 15005U 84052H   25035.34712787  .00000004  00000-0  11968-3 0  9996
2 15005  74.0156 343.1760 0051455 168.7841 311.2416 12.57372719867750
Epoch: 2025-02-04T08:19Z
Definitive object data (Epoch: 2025-02-04T08:19:51.847Z)
Latitude56.82348°
Longitude-122.39075°
Altitude1,416.545 km
Speed7.17 km/s
True Right ascension09h 09m 18s
True Declination56° 40' 45"
Sunlit
Object was in full shadow at TLE epoch
Visualization TLE readout
Latitude57.2082°
Longitude-124.62559°
Altitude1,415.791 km
Speed7.171 km/s
Apparent Right ascension07h 50m 54s
Apparent Declination15° 39' 23"
Sunlit
Object is in full shadow
Visualization observer readout
Local Sidereal Time18:51:09
Azimuth342.846° N
Elevation-32.712°
Doppler factor1
Orbital elements
Apogee altitude1,471.82 km
Perigee altitude1,391.45 km
Semi-major axis7,809.772 km
Eccentricity0.0051455
Inclination74.0156°
RAAN343.176°
Arg. of periapsis168.7841°
True anomaly310.79635°
Mean anomaly311.2416°
Eccentric anomaly311.01916°
Mean motion3.14475 °/min
BSTAR0.00011968
Orbital period114.48 mins
Loading maneuver chart data...
Loading historical data...
Loading historical data...
Loading historical data...
Loading historical data...
Loading historical data...
Loading historical data...
Loading historical data...

COSMOS 1566 Visibility forecast

Observer location: undefined°, undefined

Span
Click to sort rows by Start time (UTC) header in descending order
Start Az.
Max El. time (UTC)
Max El. Az.
Max El.
End time (UTC)
End Az.
13 mins2025-02-05 20:04:17.429Z147.153° SSE2025-02-05 20:11:17.429Z89.367° E25.581°2025-02-05 20:17:17.429Z42.055° NE
15 mins2025-02-05 22:00:17.429Z216.707° SW2025-02-05 22:07:17.429Z298.945° NW41.222°2025-02-05 22:15:17.429Z12.673° NNE
6 mins2025-02-06 00:03:17.429Z296.633° NW2025-02-06 00:06:17.429Z318.735° NNW13.468°2025-02-06 00:09:17.429Z340.474° N
12 mins2025-02-06 06:07:17.429Z5.268° NNE2025-02-06 06:13:17.429Z61.344° ENE26.378°2025-02-06 06:19:17.429Z112.045° ESE
15 mins2025-02-06 08:03:17.429Z332.441° NNW2025-02-06 08:10:17.429Z256.415° W41.297°2025-02-06 08:18:17.429Z179.678° S
|